TimeCDT,TemperatureF,Dew PointF,Humidity,Sea Level PressureIn,VisibilityMPH,Wind Direction,Wind SpeedMPH,Gust SpeedMPH,PrecipitationIn,Events,Conditions,WindDirDegrees,DateUTC
12:53 AM,42.1,30.9,65,29.46,10.0,WSW,24.2,34.5,N/A,,Overcast,240,2013-04-19 05:53:00
1:53 AM,39.9,30.0,68,29.47,10.0,WSW,16.1,27.6,N/A,,Overcast,240,2013-04-19 06:53:00
2:53 AM,39.9,28.9,65,29.44,10.0,SW,16.1,25.3,N/A,,Overcast,230,2013-04-19 07:53:00
3:53 AM,39.9,28.0,63,29.44,10.0,WSW,16.1,23.0,0.00,Rain,Light Rain,240,2013-04-19 08:53:00
4:15 AM,39.2,26.6,61,29.43,10.0,WSW,12.7,26.5,0.00,,Overcast,240,2013-04-19 09:15:00
4:53 AM,39.9,26.1,58,29.44,10.0,WSW,18.4,28.8,0.00,,Overcast,250,2013-04-19 09:53:00
5:53 AM,39.0,27.0,62,29.44,10.0,WSW,16.1,29.9,N/A,,Overcast,240,2013-04-19 10:53:00
6:53 AM,39.0,28.0,65,29.44,10.0,WSW,15.0,28.8,N/A,,Overcast,240,2013-04-19 11:53:00
7:24 AM,39.2,26.6,61,29.44,10.0,WSW,18.4,28.8,N/A,,Overcast,240,2013-04-19 12:24:00
7:53 AM,39.0,27.0,62,29.45,10.0,WSW,15.0,29.9,0.00,Rain,Light Rain,250,2013-04-19 12:53:00
8:10 AM,39.2,26.6,61,29.43,10.0,WSW,13.8,23.0,0.00,,Overcast,250,2013-04-19 13:10:00
8:53 AM,39.9,28.0,63,29.44,10.0,WSW,15.0,26.5,0.00,,Overcast,250,2013-04-19 13:53:00
9:53 AM,39.9,28.0,63,29.47,10.0,WSW,17.3,31.1,0.00,,Overcast,250,2013-04-19 14:53:00
10:53 AM,42.1,27.0,55,29.48,10.0,WSW,16.1,33.4,N/A,,Mostly Cloudy,250,2013-04-19 15:53:00
11:53 AM,39.9,30.0,68,29.49,5.0,West,19.6,39.1,0.01,Rain,Light Rain,270,2013-04-19 16:53:00
12:53 PM,44.1,27.0,51,29.51,10.0,WSW,18.4,32.2,0.00,,Overcast,250,2013-04-19 17:53:00
1:53 PM,44.1,28.9,55,29.54,10.0,West,17.3,33.4,0.00,,Overcast,270,2013-04-19 18:53:00
2:53 PM,42.1,27.0,55,29.58,10.0,WSW,17.3,35.7,0.00,Rain,Light Rain,250,2013-04-19 19:53:00
3:53 PM,42.1,28.0,58,29.60,10.0,West,17.3,27.6,0.00,Rain,Light Rain,260,2013-04-19 20:53:00
4:53 PM,42.1,25.0,51,29.65,10.0,West,19.6,28.8,0.00,,Overcast,270,2013-04-19 21:53:00
5:53 PM,41.0,24.1,51,29.69,10.0,WNW,17.3,29.9,N/A,,Overcast,290,2013-04-19 22:53:00
6:53 PM,37.9,25.0,60,29.73,4.0,West,17.3,34.5,0.00,Snow,Light Snow,280,2013-04-19 23:53:00
7:53 PM,37.9,23.0,55,29.78,10.0,West,8.1,16.1,0.00,,Overcast,260,2013-04-20 00:53:00
8:53 PM,37.0,26.1,65,29.82,9.0,WNW,11.5,-,0.00,,Overcast,300,2013-04-20 01:53:00
9:53 PM,37.9,24.1,57,29.85,10.0,WNW,8.1,-,N/A,,Overcast,290,2013-04-20 02:53:00
10:10 PM,35.6,26.6,70,29.85,1.5,NNW,13.8,23.0,0.00,Snow,Light Snow,330,2013-04-20 03:10:00
10:14 PM,33.8,28.4,81,29.85,0.8,NW,12.7,23.0,0.00,Snow,Light Snow,310,2013-04-20 03:14:00
10:22 PM,33.8,28.4,81,29.85,1.0,West,8.1,18.4,0.01,Snow,Light Snow,280,2013-04-20 03:22:00
10:28 PM,33.8,28.4,81,29.85,3.0,WNW,8.1,-,0.01,Snow,Light Snow,290,2013-04-20 03:28:00
10:40 PM,35.6,28.4,75,29.85,10.0,West,8.1,-,0.01,,Overcast,280,2013-04-20 03:40:00
10:53 PM,35.1,27.0,72,29.88,10.0,West,10.4,19.6,0.01,,Overcast,280,2013-04-20 03:53:00
11:53 PM,35.1,23.0,61,29.91,10.0,WNW,10.4,-,N/A,,Mostly Cloudy,300,2013-04-20 04:53:00